Weather in Novyy

Russia / Sakha (Yakutia) Republic     62°35′06″N   135°31′39″E
temp.,
°C
wind,
m/s
gust,
m/s
humid.,
%
clouds,
%
prec.,
mm/h
press.,
hPa
HPBL,
m
22 january, sat
sat2200:00−32se1298100 0.1 103560
03:00−31se1198100 0.1 103557
06:00−31se119999 0.1 103447
09:00−29ese1198100 0.2 103493
12:00−27ese1195100 0.2 1032226
15:00−26nne1098100 0.3 1032155
18:00−30nne00100100 0.1 10329
21:00−33sw0010091 0.1 10329
23 january, sun
sun2300:00−35ssw1110096 0.0 10319
03:00−36s0010098 0.1 10319
06:00−37sse1110097 0.0 10309
09:00−37se1110095 0.0 10309
12:00−31ene019989 0.0 102869
15:00−33ne1110072 0.0 10289
18:00−36se0010090 0.0 10299
21:00−34s009977 0.0 10289
24 january, mon
mon2400:00−38sse1110024 0.0 10289
03:00−38ssw1110029 0.0 10289
06:00−40sse1110040 0.0 10298
09:00−40sse1110042 0.0 10298
12:00−32ene119633 0.0 102874
15:00−34ene1110043 0.0 10289
18:00−36sse1110082 0.0 10299
21:00−34sse119990 0.0 102827
25 january, tue
tue2500:00−31sse1398100 0.1 102787
03:00−29sse1498100 0.1 1026137
06:00−28sse1399100 0.3 1024142
09:00−26se1299100 0.6 1024117
12:00−24ese0194100 0.3 1023319
15:00−25n119992 0.4 102411
18:00−33w11100100 0.0 10269
21:00−36wsw11100100 0.1 10279
26 january, wed
wed2600:00−38wsw1110096 0.0 10289
03:00−39sw11100100 0.0 10298
06:00−37ssw11100100 0.0 103012
09:00−34s0099100 0.0 103014
12:00−31ssw0194100 0.0 1030136
15:00−32se009972 0.0 10319
18:00−35s1110082 0.0 10329
21:00−37sse1110060 0.0 10329